PST,Max TemperatureF,Mean TemperatureF,Min TemperatureF,Max Dew PointF,MeanDew PointF,Min DewpointF,Max Humidity, Mean Humidity, Min Humidity, Max Sea Level PressureIn, Mean Sea Level PressureIn, Min Sea Level PressureIn, Max VisibilityMiles, Mean VisibilityMiles, Min VisibilityMiles, Max Wind SpeedMPH, Mean Wind SpeedMPH, Max Gust SpeedMPH,PrecipitationIn, CloudCover, Events, WindDirDegrees
2014-1-1,56,45,34,45,39,34,100,81,61,30.26,30.22,30.18,10,5,0,10,3,13,0.00,1,Fog,344
2014-1-2,57,47,36,46,40,35,100,76,51,30.20,30.16,30.13,10,8,2,9,3,10,0.00,0,,358
2014-1-3,52,43,33,46,41,35,100,89,77,30.15,30.11,30.06,10,3,0,16,4,21,0.00,2,Fog,342
2014-1-4,63,48,33,42,33,16,100,60,19,30.14,30.09,30.05,10,8,1,14,6,17,0.00,0,,27
2014-1-5,69,55,41,43,27,15,80,49,18,30.22,30.17,30.12,10,10,10,16,6,17,0.00,0,,118
2014-1-6,55,48,40,46,41,35,100,76,51,30.30,30.21,30.14,10,6,0,13,4,14,T,5,Fog-Rain,135
2014-1-7,53,48,43,49,43,36,100,80,59,30.20,30.16,30.13,10,6,1,17,8,22,0.20,8,Rain,143
2014-1-8,52,51,50,51,50,48,100,95,89,30.21,30.17,30.13,10,4,1,22,13,30,0.36,8,Rain,158
2014-1-9,51,48,45,49,47,44,100,93,86,30.29,30.24,30.20,10,4,0,23,9,28,0.05,8,Fog-Rain,162
2014-1-10,52,51,49,50,49,47,100,95,89,30.30,30.24,30.10,10,6,0,22,10,28,0.00,8,Fog,156
2014-1-11,54,51,47,52,48,44,100,89,77,30.32,30.10,30.00,10,5,2,37,15,43,0.50,8,Rain,194
2014-1-12,53,48,42,48,45,41,100,92,83,30.59,30.48,30.32,8,3,1,13,5,14,0.03,8,Rain,153
2014-1-13,54,48,41,47,42,37,96,75,54,30.58,30.54,30.48,10,5,1,13,7,16,0.00,1,,10
2014-1-14,62,50,38,44,38,30,76,56,36,30.51,30.47,30.40,10,6,1,12,6,15,0.00,1,,24
2014-1-15,64,51,38,46,36,24,89,58,27,30.41,30.34,30.28,10,7,1,14,5,17,0.00,0,,9
2014-1-16,73,60,46,43,30,24,66,43,19,30.27,30.20,30.13,10,9,2,15,7,21,0.00,0,,58
2014-1-17,62,50,38,48,38,29,100,68,35,30.20,30.17,30.13,10,6,0,12,5,15,0.00,0,Fog,164
2014-1-18,56,46,36,46,42,36,100,86,71,30.24,30.17,30.12,10,4,0,18,5,25,0.00,3,Fog,351
2014-1-19,59,49,38,46,43,38,100,81,62,30.17,30.13,30.10,10,3,0,12,5,15,0.00,3,Fog,359
2014-1-20,64,52,40,42,37,33,100,68,36,30.27,30.19,30.11,10,8,0,9,4,12,0.00,0,Fog,152
2014-1-21,51,45,38,45,42,38,100,89,77,30.37,30.31,30.26,10,4,0,14,5,17,0.00,6,Fog,311
2014-1-22,55,45,34,45,39,33,100,82,63,30.32,30.17,30.05,10,4,0,9,3,11,0.00,2,Fog,342
2014-1-23,75,59,42,44,30,25,83,50,17,30.04,29.99,29.92,10,10,8,17,8,23,0.00,0,,41
2014-1-24,69,57,44,49,38,25,86,54,22,30.27,30.16,30.04,10,10,3,12,6,19,0.00,1,,88
2014-1-25,59,48,37,47,42,36,100,72,43,30.30,30.23,30.19,10,5,0,10,3,13,0.00,2,Fog,346
2014-1-26,60,48,36,46,42,36,100,76,51,30.20,30.13,30.05,10,5,0,10,3,13,0.00,3,Fog,352
2014-1-27,53,46,39,47,43,38,100,86,71,30.20,30.14,30.09,10,6,0,9,4,11,T,5,Fog-Rain,145
2014-1-28,58,54,50,53,51,47,100,89,77,30.21,30.17,30.14,10,4,1,16,8,22,0.26,8,Rain,147
2014-1-29,54,51,47,53,51,46,100,95,89,30.18,30.12,30.08,10,4,2,18,6,23,0.66,8,Rain,184
2014-1-30,53,47,40,47,44,37,100,86,71,30.07,30.02,29.97,10,6,1,21,10,29,0.09,5,Rain,315
2014-1-31,51,42,32,40,37,32,96,75,54,30.20,30.17,30.08,10,10,9,8,4,11,0.00,2,,55